sat.trackr.live / text

‹ back to catalog

YAOGAN-31 04C

NORAD 47857 · 2021-020D

PAYLOAD ACTIVE UNKNOWN

§ Identity

Operator
Country
PRC
Launch date
2021-03-13
Launch site
JSC
Launch vehicle
Mass (kg)
RCS (m²)

External: N2YO · Heavens-Above · Gunter

§ Orbital elements

Epoch: 2026-09-20T21:21:09.874368Z

Period
107.03 min
Inclination
63.4082°
Eccentricity
0.0182972
Mean motion
13.45452358 rev/d
Perigee alt
952.4 km
Apogee alt
1,225.7 km
Semi-major
7,467.2 km
B*
1.2910e-4
RAAN
12.1375°
Arg perigee
0.7307°
Mean anomaly
359.3953°
Rev number
27,133

§ Raw data

YAOGAN-31 04C1 47857U 21020D   26263.88969762 -.00000006  00000+0  12910-3 0  99922 47857  63.4082  12.1375 0182972   0.7307 359.3953 13.45452358271334

JSON: /api/v1/satellites/47857 · /tle

For live sub-satellite position, see the globe view (requires WebGL).

§ Visibility from observer

Set your observer location to see the next 7 days of passes ≥ 10°. The values pass through the URL so the page stays shareable.

No JS? Fill the form by hand. The geolocation button needs JavaScript.